OSSERVATORIO METEOROLOGICO COMUNALE "E. Torricelli" - Faenza (Italia)

Latitudine: 44° 17' 44.97" N - Longitudine: 11° 52' 33.27" E - Altitudine: 36 m s.l.m.

28 luglio 2017

Temperatura
(°C)
Umidità
(%)
Pressione
(hPa)
Velocità vento
(km/h)
Pioggia Rad. Sol.
(W/m2)
Max Min Med Max Min Med Max Min Max Orario Dir.
Med.
Totale
(mm)
Intensità
(mm/h)
Max
34,1 19,9 27,3 61 27 39 1008 1006 27 16:23 188 - - 1002

Orario Temperatura
(°C)
Umidità
(%)
Pressione
(hPa)
Velocità vento
(km/h)
Dir. vento
(°)
Pioggia
(mm)
Rad. Sol.
(W/m2)
0:00 23,5 42 1006,2 5 215 - -
0:15 23,2 41 1006,0 6 230 - -
0:30 23,7 38 1006,1 6 193 - -
0:45 23,9 38 1006,2 6 213 - -
1:00 23,7 38 1006,2 8 228 - -
1:15 23,2 39 1006,1 6 228 - -
1:30 22,8 41 1006,1 6 228 - -
1:45 22,9 41 1006,0 6 223 - -
2:00 22,4 43 1006,1 0 - - -
2:15 22,0 44 1006,2 4 195 - -
2:30 21,7 47 1006,1 4 295 - -
2:45 21,5 48 1006,2 6 223 - -
3:00 21,8 48 1006,0 3 208 - -
3:15 22,2 47 1006,1 10 178 - -
3:30 22,4 47 1006,1 11 268 - -
3:45 22,5 48 1006,2 2 203 - -
4:00 22,6 48 1006,3 4 303 - -
4:15 22,4 49 1006,3 6 205 - -
4:30 22,4 50 1006,4 9 215 - -
4:45 22,3 51 1006,5 4 273 - -
5:00 22,4 50 1006,7 6 253 - 1,6
5:15 21,2 52 1006,9 4 30 - 8,3
5:30 20,1 56 1007,2 4 48 - 15,8
5:45 19,9 58 1007,2 0 - - 23,3
6:00 20,1 60 1007,4 0 - - 31,6
6:15 20,7 60 1007,6 6 285 - 144,7
6:30 21,3 57 1007,8 4 328 - 187,6
6:45 22,2 53 1007,9 6 258 - 230,1
7:00 22,8 52 1007,8 5 265 - 276,0
7:15 23,8 50 1007,8 4 288 - 202,1
7:30 24,6 48 1007,8 0 - - 358,8
7:45 26,1 43 1007,8 2 73 - 401,7
8:00 26,4 42 1007,9 3 28 - 442,2
8:15 26,8 40 1008,0 6 288 - 486,2
8:30 27,2 39 1008,0 4 23 - 525,7
8:45 27,9 39 1008,0 1 308 - 566,0
9:00 28,2 37 1008,1 4 80 - 598,7
9:15 28,2 37 1008,1 11 40 - 635,3
9:30 29,0 36 1008,3 12 43 - 744,3
9:45 29,0 34 1008,2 7 293 - 742,7
10:00 29,2 34 1008,3 8 125 - 735,8
10:15 29,7 33 1008,3 16 8 - 767,4
10:30 29,4 31 1008,3 7 58 - 787,2
10:45 30,3 31 1008,3 4 340 - 832,3
11:00 31,2 30 1008,4 4 278 - 919,7
11:15 30,3 31 1008,3 6 75 - 951,9
11:30 31,6 31 1008,3 0 - - 904,1
11:45 31,9 28 1008,3 6 355 - 867,8
12:00 31,5 29 1008,3 9 328 - 928,3
12:15 31,4 29 1008,3 4 313 - 503,6
12:30 31,7 28 1008,3 9 23 - 896,3
12:45 31,7 28 1008,2 8 345 - 852,8
13:00 32,4 28 1008,1 5 95 - 848,9
13:15 32,1 28 1007,9 5 308 - 837,8
13:30 32,3 27 1008,0 9 58 - 835,8
13:45 33,3 27 1007,9 0 - - 818,8
14:00 33,3 28 1007,7 7 5 - 782,3
14:15 33,3 27 1007,7 8 325 - 774,7
14:30 33,6 27 1007,5 9 333 - 745,4
14:45 33,8 29 1007,4 7 185 - 733,7
15:00 34,1 29 1007,4 4 203 - 723,4
15:15 33,7 28 1007,2 2 155 - 630,3
15:30 33,6 29 1007,2 4 130 - 595,0
15:45 33,8 29 1007,2 3 130 - 677,6
16:00 33,9 29 1007,3 6 228 - 556,2
16:15 32,8 31 1007,3 8 50 - 151,8
16:30 33,0 31 1007,3 6 95 - 493,8
16:45 32,5 32 1007,3 5 125 - 427,0
17:00 32,1 36 1007,3 4 155 - 389,9
17:15 31,8 36 1007,4 4 48 - 333,6
17:30 31,6 36 1007,4 5 90 - 288,6
17:45 - - - - - - -
18:00 - - - - - - -
18:15 - - - - - - -
18:30 - - - - - - -
18:45 - - - - - - -
19:00 - - - - - - -
19:15 - - - - - - -
19:30 - - - - - - -
19:45 - - - - - - -
20:00 - - - - - - -
20:15 - - - - - - -
20:30 - - - - - - -
20:45 - - - - - - -
21:00 - - - - - - -
21:15 - - - - - - -
21:30 - - - - - - -
21:45 - - - - - - -
22:00 - - - - - - -
22:15 - - - - - - -
22:30 - - - - - - -
22:45 - - - - - - -
23:00 - - - - - - -
23:15 - - - - - - -
23:30 - - - - - - -
23:45 - - - - - - -
24:00 - - - - - - -